Theta_e
317 318 314 311 311 311 311 313 317 318 317 316 312 309 308 308 308 308 307 307 307 307 306 306 306 306 306 307 307 306 306 306 306 306 306 305 305 305 304 304 304 304
314 316 314 312 314 315 314 316 319 317 317 319 317 313 309 307 308 308 307 308 307 307 307 306 306 306 306 306 306 306 306 306 305 305 306 306 305 305 304 304 304 304
315 316 315 313 316 320 317 318 321 318 317 319 319 316 312 308 308 308 308 308 307 307 307 307 307 307 306 306 306 306 306 306 306 306 305 305 305 305 304 304 304 304
319 319 319 316 317 320 319 318 320 320 318 319 319 318 314 310 309 309 308 308 308 308 308 307 307 307 307 307 307 307 307 306 306 306 306 305 305 305 305 305 305 305
322 321 321 320 319 320 320 320 320 321 319 318 318 319 317 313 311 310 309 309 308 308 308 308 308 308 308 307 307 307 307 307 307 306 306 306 306 306 305 306 306 306
323 323 322 322 321 320 320 321 321 321 321 319 319 319 318 316 313 311 311 310 309 309 308 309 308 308 309 308 308 308 308 308 307 307 307 307 306 306 306 306 306 306
324 324 324 323 322 321 321 322 322 322 321 320 319 319 319 319 317 314 312 311 311 310 310 309 309 309 308 308 308 309 308 308 308 308 308 308 307 307 306 306 305 306
324 324 324 323 323 323 322 323 323 322 320 320 320 320 320 320 319 318 316 314 313 312 312 311 310 309 309 309 309 309 309 309 309 308 308 309 308 307 307 307 307 305
324 324 323 323 323 323 321 321 322 321 320 319 320 320 320 320 320 320 319 317 315 314 314 314 313 311 310 309 309 309 309 309 309 309 309 309 309 308 308 309 308 306
323 323 323 324 324 323 321 321 321 322 322 320 319 319 319 319 320 320 320 319 318 317 316 316 315 314 313 311 310 309 309 309 309 309 309 309 309 309 309 308 308 307
321 320 321 322 322 321 320 318 318 319 320 319 319 318 318 319 320 320 320 320 319 318 318 318 317 316 315 314 312 311 310 310 309 309 309 310 310 309 309 309 308 308
317 318 320 321 320 320 319 318 318 318 319 319 319 317 317 318 319 320 320 319 319 319 319 319 318 318 317 316 315 313 312 311 310 310 310 310 310 310 310 309 309 308
315 317 319 319 318 319 318 317 317 317 317 317 318 317 317 317 318 320 320 319 319 319 319 319 319 319 318 317 316 315 314 313 312 311 311 311 310 310 310 310 310 309
315 315 315 314 314 315 315 315 314 314 314 314 316 317 317 317 318 319 320 319 318 318 319 319 319 319 319 318 317 316 315 314 313 312 312 311 311 311 310 310 310 309
312 311 310 310 310 311 312 312 313 312 312 314 317 316 316 316 318 319 319 318 318 318 319 319 319 319 319 318 317 317 316 315 314 313 312 311 311 311 311 310 310 309
310 310 310 310 310 311 312 312 313 313 313 315 318 319 318 320 321 321 321 320 318 318 318 319 318 318 318 318 318 317 316 315 314 314 313 312 311 311 310 310 309 308
310 310 311 310 312 314 315 315 316 318 318 318 319 320 321 321 321 322 322 321 320 319 319 318 318 317 317 318 318 317 316 315 315 314 313 312 311 310 310 309 309 308
308 308 308 308 309 311 312 314 316 317 318 318 319 319 320 320 321 320 320 320 321 321 321 320 318 316 317 317 318 317 317 315 314 314 313 312 310 310 309 308 308 306
307 307 307 308 308 309 309 311 313 314 315 315 316 318 318 318 318 316 315 317 321 321 320 320 319 317 316 316 317 317 317 315 314 313 312 311 310 309 308 307 306 305
307 308 308 308 308 308 308 308 309 311 313 314 315 316 316 316 316 314 311 313 317 319 318 319 319 318 317 317 317 317 317 315 313 312 311 310 309 308 307 306 305 304
308 309 309 308 307 307 308 308 308 309 310 312 314 314 314 315 315 315 314 312 313 315 316 317 319 319 318 317 317 317 316 314 313 312 310 308 307 307 306 305 305 304
308 309 308 308 307 307 307 307 308 308 309 311 313 314 314 314 314 315 315 314 313 315 316 317 317 318 317 317 317 316 315 313 313 312 309 307 307 306 306 305 304 304
308 309 308 308 307 307 307 307 307 307 307 308 311 312 313 314 314 314 315 314 314 315 317 317 317 317 317 316 316 315 314 313 313 311 309 307 306 306 305 304 304 303
308 308 308 307 307 306 306 306 305 304 305 307 309 311 312 313 313 314 314 314 314 315 316 316 316 316 316 316 316 315 314 313 312 310 307 306 305 304 303 303 303 302
307 307 307 307 306 306 305 305 304 302 302 304 307 309 311 312 312 313 313 313 313 314 315 315 316 316 316 315 315 314 313 312 310 307 304 303 303 302 302 302 302 302
306 306 307 307 307 307 308 307 305 302 300 302 304 307 311 312 311 312 312 312 313 314 314 315 315 316 315 314 313 312 311 310 308 305 303 302 301 301 301 301 301 301
Wind_Speed
22 20 18 16 13 13 12 11 12 12 9 7 4 3 3 4 4 5 6 6 7 6 6 6 6 6 5 6 6 6 6 7 7 7 7 6 7 6 6 6 6 4
22 21 19 18 16 14 14 13 12 12 11 10 8 5 3 3 3 4 5 6 6 6 5 5 5 4 4 4 5 5 5 6 6 6 7 7 8 7 7 8 7 7
23 21 19 19 18 15 14 14 13 12 12 12 11 9 6 3 3 2 4 4 5 5 5 5 5 4 4 3 3 3 4 5 5 5 6 6 7 7 7 7 7 7
22 21 18 16 16 14 13 13 14 14 13 13 12 12 10 6 4 3 2 3 3 4 4 4 4 4 3 3 2 2 2 3 4 4 4 5 5 6 6 6 7 6
21 20 17 15 14 14 13 12 14 14 14 13 13 14 14 10 8 7 5 4 4 3 4 4 4 4 4 3 3 2 2 1 1 1 2 3 3 4 4 4 4 4
19 18 18 18 17 15 14 14 15 14 13 13 14 15 16 15 12 10 9 8 7 6 5 5 5 5 5 5 4 4 3 3 2 1 1 1 1 1 1 1 2 3
18 18 17 18 19 18 17 16 15 15 14 12 13 15 17 18 16 15 13 12 11 11 9 8 8 8 7 7 7 6 6 5 3 3 4 4 3 2 2 2 2 3
18 19 19 18 18 20 19 17 17 17 15 13 14 15 17 19 19 18 17 16 15 15 14 13 12 11 11 10 10 9 8 7 6 5 5 5 5 5 6 5 3 3
15 17 17 16 16 19 20 19 18 17 16 15 15 15 16 19 21 21 19 19 18 18 18 17 16 15 14 13 13 13 12 10 9 8 7 7 7 6 5 7 8 6
13 11 11 12 14 17 20 20 18 16 17 18 19 19 18 19 21 23 22 21 21 21 20 20 19 18 18 17 15 15 15 13 12 11 10 10 9 7 6 8 9 9
8 7 9 13 15 17 19 20 19 19 19 20 21 22 21 21 22 24 25 24 24 23 22 22 22 21 20 20 18 17 17 16 15 14 13 12 11 9 8 9 9 9
10 9 11 14 16 16 17 18 18 20 22 25 26 25 24 25 26 26 27 27 26 25 24 23 23 23 23 22 21 19 19 19 17 16 15 14 13 11 11 11 10 10
12 11 12 13 12 12 12 11 11 11 14 19 23 23 24 27 30 30 29 28 26 25 25 24 24 24 24 23 22 20 20 20 19 18 17 16 15 14 14 13 12 12
11 12 13 13 10 8 8 8 8 8 9 11 13 16 18 23 29 32 31 28 26 25 26 26 25 25 24 24 22 21 21 21 20 20 20 18 17 16 15 15 14 14
7 8 9 8 7 8 9 11 12 13 13 12 12 12 14 16 22 28 29 28 27 27 28 29 28 26 24 23 22 22 22 23 23 22 22 21 20 18 17 16 15 14
2 2 3 3 3 4 5 7 8 10 11 12 13 14 14 15 18 22 25 26 26 27 29 31 32 28 25 24 24 24 25 25 25 24 23 21 21 19 18 17 16 15
3 2 1 1 1 1 2 3 3 5 7 9 11 12 14 15 16 17 19 21 23 25 26 30 34 34 31 30 28 27 27 27 26 25 23 21 20 19 18 17 16 15
3 3 2 2 3 3 2 3 5 5 6 8 9 10 12 14 14 14 15 16 20 22 23 26 30 32 31 31 30 29 30 31 28 25 23 20 19 19 17 16 16 15
3 2 2 2 3 3 3 4 5 6 7 8 9 10 12 14 15 15 15 16 19 21 21 24 27 27 28 29 30 32 34 34 29 25 23 21 20 19 17 15 14 12
2 2 3 3 3 4 5 5 5 6 8 9 10 11 11 13 16 16 14 14 18 22 23 23 24 25 28 30 31 33 35 34 29 24 22 20 19 18 17 16 14 14
3 3 4 4 5 5 5 6 6 7 8 9 11 11 11 12 14 16 16 14 15 19 22 23 21 21 26 32 33 33 34 33 28 23 21 18 17 18 17 17 16 16
5 4 4 4 5 5 5 5 6 7 8 9 11 12 12 12 13 15 16 17 16 17 19 22 20 19 22 28 32 32 31 29 27 26 24 21 20 19 18 17 18 17
6 5 5 5 5 5 6 6 7 8 9 9 10 12 13 13 13 14 16 17 18 18 20 23 23 22 23 26 29 30 28 27 27 28 27 24 20 19 17 17 16 16
6 6 6 7 8 8 8 9 10 11 10 9 10 13 14 14 14 15 15 16 17 20 23 24 23 24 25 26 27 27 25 24 25 26 24 20 16 14 13 13 13 13
8 9 10 10 11 11 11 11 12 13 12 11 11 13 14 14 14 15 15 17 19 21 23 24 23 23 24 24 23 22 21 22 23 22 17 12 10 9 9 9 9 10
10 11 11 11 11 11 11 13 14 14 15 14 13 13 14 14 13 14 16 19 21 23 23 22 22 21 22 21 19 18 20 22 24 22 17 12 11 10 10 10 9 12
Wind_Direction
183 191 185 183 190 193 194 188 184 186 191 203 196 143 121 120 123 126 127 128 124 122 118 116 114 113 114 112 110 105 96 92 85 80 80 77 77 76 74 75 72 70
186 192 190 186 188 195 193 186 194 195 188 206 221 211 182 138 130 128 127 134 137 137 134 129 130 127 125 122 117 111 101 95 90 88 88 82 79 79 76 73 67 59
189 193 195 190 183 194 199 186 197 207 193 201 221 231 228 191 177 165 137 145 144 143 150 147 148 150 142 141 128 115 107 99 96 92 88 87 88 88 84 83 78 70
190 191 195 193 181 193 209 195 199 212 205 200 213 232 241 229 222 231 202 190 170 156 165 164 167 173 167 175 176 142 125 105 98 96 96 98 96 90 88 85 80 75
188 188 188 191 183 192 214 208 203 214 214 207 211 228 241 243 243 254 255 246 238 209 196 192 192 193 193 204 212 207 207 174 111 102 101 104 99 95 94 85 79 76
189 189 188 191 185 187 208 213 207 211 214 215 217 224 238 246 249 255 260 260 261 257 245 239 235 228 223 227 230 229 239 246 239 269 305 314 136 124 105 50 32 28
191 191 191 195 192 189 197 204 208 213 214 221 228 228 236 247 254 257 260 260 260 261 259 254 251 251 247 246 247 245 246 252 258 270 285 287 291 308 306 306 355 352
196 197 196 199 202 201 201 202 210 215 211 216 233 238 239 246 254 257 260 261 260 261 262 259 255 254 253 253 256 256 254 257 266 272 271 273 286 305 308 304 317 329
197 204 202 203 209 211 212 213 219 224 219 214 223 235 243 249 253 256 257 259 260 259 259 259 258 257 256 255 254 257 258 257 258 261 261 264 277 291 293 293 304 317
188 202 204 205 211 214 215 216 220 227 229 223 220 225 236 246 252 254 252 250 252 252 250 251 255 257 260 259 255 253 255 257 255 254 253 255 265 271 260 266 287 302
209 231 235 226 223 223 223 224 226 232 239 239 235 232 234 237 243 249 249 244 243 243 242 243 247 251 256 259 257 252 252 255 256 254 252 251 254 256 253 258 275 287
229 240 243 238 233 232 234 238 241 246 250 249 246 243 241 241 241 243 244 244 243 243 241 240 242 243 246 251 252 250 249 252 253 252 250 249 250 252 256 263 272 279
225 220 217 220 219 218 224 230 231 241 251 251 251 251 248 246 244 242 241 241 242 244 243 240 241 242 240 241 244 245 246 248 248 246 244 244 246 251 259 268 276 282
199 197 199 203 204 204 213 222 228 243 257 255 251 251 251 249 247 247 247 244 241 242 243 240 239 240 237 235 238 240 242 245 245 243 242 243 246 250 257 267 276 284
191 200 211 221 228 232 238 247 257 265 266 256 246 247 253 252 247 246 247 247 243 239 239 238 236 236 234 232 235 238 238 242 244 243 244 245 248 252 256 262 271 279
186 208 233 274 291 270 265 271 273 272 266 258 255 256 257 256 251 246 245 249 249 243 240 241 240 240 237 233 236 239 238 238 239 241 244 245 249 255 259 264 272 281
167 170 179 264 294 278 304 300 273 258 255 254 256 256 256 257 257 254 251 252 254 251 248 245 243 243 242 237 234 235 234 232 235 240 242 242 248 256 260 267 277 284
179 190 198 216 218 208 220 239 238 241 247 250 252 251 251 254 256 258 261 260 258 259 257 250 245 245 243 236 233 232 231 230 233 238 240 240 247 254 259 268 278 284
181 192 213 227 239 236 232 239 250 263 263 260 259 253 251 254 256 258 262 260 257 257 256 251 246 243 238 235 234 233 232 231 233 237 241 244 249 254 256 260 266 270
185 188 209 221 240 253 258 260 260 262 262 260 262 261 262 267 270 272 271 263 257 257 256 253 247 241 238 237 235 232 232 232 233 238 245 249 251 253 253 253 254 257
209 212 225 236 250 259 266 270 264 261 263 263 262 261 262 268 274 278 282 277 266 260 260 258 252 243 239 238 236 233 231 230 233 241 246 243 241 244 250 256 263 269
213 219 233 245 258 264 269 273 271 268 268 269 270 268 264 262 263 267 274 278 274 264 257 256 254 248 242 238 234 232 233 236 241 245 242 236 238 246 255 264 272 279
223 232 248 258 265 273 276 276 274 274 272 268 271 274 272 268 265 263 263 269 273 266 255 251 250 248 245 241 236 235 239 247 248 243 240 241 247 254 261 268 276 283
241 244 252 261 267 272 277 279 281 287 286 277 269 270 270 268 267 266 264 264 266 263 258 254 250 247 246 243 239 237 241 245 243 238 241 248 253 258 268 275 279 283
248 248 252 261 269 275 278 279 284 291 292 283 272 267 268 268 267 269 268 264 259 257 258 258 254 247 243 238 235 235 237 236 231 227 230 239 243 248 262 271 272 272
256 255 256 261 266 269 270 272 280 290 293 287 277 266 263 265 266 268 265 259 255 255 257 256 250 242 236 231 230 233 232 227 223 220 215 215 222 230 239 244 249 258